Time,TemperatureF,DewpointF,PressureIn,WindDirection,WindDirectionDegrees,WindSpeedMPH,WindSpeedGustMPH,Humidity,HourlyPrecipIn,Conditions,Clouds,dailyrainin,SoftwareType,DateUTC
2013-07-04 00:00:00,70.9,66.8,29.15,SSW,202,0.0,0.0,87,0.00,,,0.00,VWS V14.00,2013-07-04 04:00:00,
2013-07-04 00:01:00,70.9,66.8,29.15,SSW,202,0.0,0.0,87,0.00,,,0.00,VWS V14.00,2013-07-04 04:01:00,
2013-07-04 00:02:00,70.9,66.8,29.15,SSW,202,0.0,0.0,87,0.00,,,0.00,VWS V14.00,2013-07-04 04:02:00,
2013-07-04 00:07:00,70.7,66.7,29.15,SSW,202,0.0,0.0,87,0.00,,,0.00,VWS V14.00,2013-07-04 04:07:00,
2013-07-04 00:12:00,70.5,66.5,29.15,SSW,202,0.0,0.0,87,0.00,,,0.00,VWS V14.00,2013-07-04 04:12:00,
2013-07-04 00:17:00,70.5,66.8,29.15,SSW,202,0.0,0.0,88,0.00,,,0.00,VWS V14.00,2013-07-04 04:17:00,
2013-07-04 00:22:00,70.3,66.6,29.15,SSW,202,0.0,0.0,88,0.00,,,0.00,VWS V14.00,2013-07-04 04:22:00,
2013-07-04 00:27:00,70.2,66.8,29.15,SSW,202,0.0,0.0,89,0.00,,,0.00,VWS V14.00,2013-07-04 04:27:00,
2013-07-04 00:32:00,70.2,66.8,29.15,SSW,202,0.0,0.0,89,0.00,,,0.00,VWS V14.00,2013-07-04 04:32:00,
2013-07-04 00:37:00,70.0,66.6,29.15,SSW,202,0.0,0.0,89,0.00,,,0.00,VWS V14.00,2013-07-04 04:37:00,
2013-07-04 00:42:00,69.8,66.4,29.15,SSW,202,0.0,0.0,89,0.00,,,0.00,VWS V14.00,2013-07-04 04:42:00,
2013-07-04 00:47:00,69.6,66.6,29.15,SSW,202,0.0,0.0,90,0.00,,,0.00,VWS V14.00,2013-07-04 04:47:00,
2013-07-04 00:52:00,69.4,66.7,29.15,SSW,202,0.0,0.0,91,0.00,,,0.00,VWS V14.00,2013-07-04 04:52:00,
2013-07-04 00:57:00,69.3,66.8,29.15,SSW,202,0.0,0.0,92,0.00,,,0.00,VWS V14.00,2013-07-04 04:57:00,
2013-07-04 01:02:00,69.1,66.7,29.15,SSW,202,0.0,0.0,92,0.00,,,0.00,VWS V14.00,2013-07-04 05:02:00,
2013-07-04 01:07:00,68.9,66.5,29.15,SSW,202,0.0,0.0,92,0.00,,,0.00,VWS V14.00,2013-07-04 05:07:00,
2013-07-04 01:13:00,68.7,66.3,29.15,SSW,202,0.0,0.0,92,0.00,,,0.00,VWS V14.00,2013-07-04 05:13:00,
2013-07-04 01:18:00,68.7,66.3,29.15,SSW,202,0.0,0.0,92,0.00,,,0.00,VWS V14.00,2013-07-04 05:18:00,
2013-07-04 01:23:00,68.5,66.4,29.15,SSW,202,0.0,0.0,93,0.00,,,0.00,VWS V14.00,2013-07-04 05:23:00,
2013-07-04 01:28:00,68.4,66.3,29.15,SSW,202,0.0,0.0,93,0.00,,,0.00,VWS V14.00,2013-07-04 05:28:00,
2013-07-04 01:33:00,68.4,66.6,29.15,SSW,202,0.0,0.0,94,0.00,,,0.00,VWS V14.00,2013-07-04 05:33:00,
2013-07-04 01:38:00,68.2,66.7,29.15,SSW,202,0.0,0.0,95,0.00,,,0.00,VWS V14.00,2013-07-04 05:38:00,
2013-07-04 01:43:00,68.2,66.7,29.15,SSW,202,0.0,0.0,95,0.00,,,0.00,VWS V14.00,2013-07-04 05:43:00,
2013-07-04 01:48:00,68.2,66.7,29.15,SSW,202,0.0,0.0,95,0.00,,,0.00,VWS V14.00,2013-07-04 05:48:00,
2013-07-04 01:53:00,68.0,66.8,29.15,SSW,202,0.0,0.0,96,0.00,,,0.00,VWS V14.00,2013-07-04 05:53:00,
2013-07-04 01:58:00,68.2,67.0,29.15,SSW,202,0.0,0.0,96,0.00,,,0.00,VWS V14.00,2013-07-04 05:58:00,
2013-07-04 02:03:00,68.2,67.0,29.15,SSW,202,0.0,0.0,96,0.00,,,0.00,VWS V14.00,2013-07-04 06:03:00,
2013-07-04 02:08:00,68.2,67.0,29.15,SSW,202,0.0,0.0,96,0.00,,,0.00,VWS V14.00,2013-07-04 06:08:00,
2013-07-04 02:13:00,68.2,66.7,29.15,SSW,202,0.0,0.0,95,0.00,,,0.00,VWS V14.00,2013-07-04 06:13:00,
2013-07-04 02:18:00,68.2,66.7,29.15,SSW,202,0.0,0.0,95,0.00,,,0.00,VWS V14.00,2013-07-04 06:18:00,
2013-07-04 02:23:00,68.0,66.2,29.15,SSW,202,0.0,0.0,94,0.00,,,0.00,VWS V14.00,2013-07-04 06:23:00,
2013-07-04 02:28:00,68.0,66.2,29.15,SSW,202,0.0,0.0,94,0.00,,,0.00,VWS V14.00,2013-07-04 06:28:00,
2013-07-04 02:33:00,68.0,66.5,29.15,SSW,202,0.0,0.0,95,0.00,,,0.00,VWS V14.00,2013-07-04 06:33:00,
2013-07-04 02:38:00,67.8,66.6,29.15,SSW,202,0.0,0.0,96,0.00,,,0.00,VWS V14.00,2013-07-04 06:38:00,
2013-07-04 02:43:00,67.8,66.6,29.15,SSW,202,0.0,0.0,96,0.00,,,0.00,VWS V14.00,2013-07-04 06:43:00,
2013-07-04 02:48:00,67.6,66.5,29.15,SSW,202,0.0,0.0,96,0.00,,,0.00,VWS V14.00,2013-07-04 06:48:00,
2013-07-04 02:53:00,67.6,66.5,29.15,SSW,202,0.0,0.0,96,0.00,,,0.00,VWS V14.00,2013-07-04 06:53:00,
2013-07-04 02:58:00,67.5,66.3,29.15,SSW,202,0.0,0.0,96,0.00,,,0.00,VWS V14.00,2013-07-04 06:58:00,
2013-07-04 03:03:00,67.3,65.8,29.15,SSW,202,0.0,0.0,95,0.00,,,0.00,VWS V14.00,2013-07-04 07:03:00,
2013-07-04 03:08:00,67.3,65.8,29.15,SSW,202,0.0,0.0,95,0.00,,,0.00,VWS V14.00,2013-07-04 07:08:00,
2013-07-04 03:13:00,67.3,65.8,29.15,SSW,202,0.0,0.0,95,0.00,,,0.00,VWS V14.00,2013-07-04 07:13:00,
2013-07-04 03:18:00,67.3,66.1,29.15,SSW,202,0.0,0.0,96,0.00,,,0.00,VWS V14.00,2013-07-04 07:18:00,
2013-07-04 03:23:00,67.3,66.1,29.15,SSW,202,0.0,0.0,96,0.00,,,0.00,VWS V14.00,2013-07-04 07:23:00,
2013-07-04 03:28:00,67.3,66.1,29.15,SSW,202,0.0,0.0,96,0.00,,,0.00,VWS V14.00,2013-07-04 07:28:00,
2013-07-04 03:33:00,67.1,65.9,29.15,SSW,202,0.0,0.0,96,0.00,,,0.00,VWS V14.00,2013-07-04 07:33:00,
2013-07-04 03:38:00,67.1,65.6,29.15,SSW,202,0.0,0.0,95,0.00,,,0.00,VWS V14.00,2013-07-04 07:38:00,
2013-07-04 03:43:00,67.1,65.6,29.15,SSW,202,0.0,0.0,95,0.00,,,0.00,VWS V14.00,2013-07-04 07:43:00,
2013-07-04 03:48:00,67.1,65.9,29.15,SSW,202,0.0,0.0,96,0.00,,,0.00,VWS V14.00,2013-07-04 07:48:00,
2013-07-04 03:53:00,67.3,66.1,29.15,SSW,202,0.0,0.0,96,0.00,,,0.00,VWS V14.00,2013-07-04 07:53:00,
2013-07-04 03:58:00,67.3,66.1,29.15,SSW,202,0.0,0.0,96,0.00,,,0.00,VWS V14.00,2013-07-04 07:58:00,
2013-07-04 04:03:00,67.3,66.1,29.15,SSW,202,0.0,0.0,96,0.00,,,0.00,VWS V14.00,2013-07-04 08:03:00,
2013-07-04 04:08:00,67.3,66.4,29.15,SSW,202,0.0,0.0,97,0.00,,,0.00,VWS V14.00,2013-07-04 08:08:00,
2013-07-04 04:13:00,67.3,66.1,29.15,SSW,202,0.0,0.0,96,0.00,,,0.00,VWS V14.00,2013-07-04 08:13:00,
2013-07-04 04:19:00,67.3,66.1,29.15,SSW,202,0.0,0.0,96,0.00,,,0.00,VWS V14.00,2013-07-04 08:19:00,
2013-07-04 04:24:00,67.3,66.1,29.15,SSW,202,0.0,0.0,96,0.00,,,0.00,VWS V14.00,2013-07-04 08:24:00,
2013-07-04 04:29:00,67.3,66.1,29.15,SSW,202,0.0,0.0,96,0.00,,,0.00,VWS V14.00,2013-07-04 08:29:00,
2013-07-04 04:34:00,67.5,66.3,29.15,SSW,202,0.0,0.0,96,0.00,,,0.00,VWS V14.00,2013-07-04 08:34:00,
2013-07-04 04:39:00,67.3,66.1,29.15,SSW,202,0.0,0.0,96,0.00,,,0.00,VWS V14.00,2013-07-04 08:39:00,
2013-07-04 04:44:00,67.1,65.9,29.15,SSW,202,0.0,0.0,96,0.00,,,0.00,VWS V14.00,2013-07-04 08:44:00,
2013-07-04 04:49:00,67.1,65.9,29.15,SSW,202,0.0,0.0,96,0.00,,,0.00,VWS V14.00,2013-07-04 08:49:00,
2013-07-04 04:54:00,67.1,65.9,29.15,SSW,202,0.0,0.0,96,0.00,,,0.00,VWS V14.00,2013-07-04 08:54:00,
2013-07-04 04:59:00,66.9,65.8,29.15,SSW,202,0.0,0.0,96,0.00,,,0.00,VWS V14.00,2013-07-04 08:59:00,
2013-07-04 05:04:00,66.9,65.8,29.15,SSW,202,0.0,0.0,96,0.00,,,0.00,VWS V14.00,2013-07-04 09:04:00,
2013-07-04 05:09:00,66.7,65.6,29.15,SSW,202,0.0,0.0,96,0.00,,,0.00,VWS V14.00,2013-07-04 09:09:00,
2013-07-04 05:14:00,66.7,65.6,29.15,SSW,202,0.0,0.0,96,0.00,,,0.00,VWS V14.00,2013-07-04 09:14:00,
2013-07-04 05:19:00,66.6,65.1,29.15,SSW,202,0.0,0.0,95,0.00,,,0.00,VWS V14.00,2013-07-04 09:19:00,
2013-07-04 05:24:00,66.6,65.1,29.15,SSW,202,0.0,0.0,95,0.00,,,0.00,VWS V14.00,2013-07-04 09:24:00,
2013-07-04 05:29:00,66.4,64.9,29.15,SSW,202,0.0,0.0,95,0.00,,,0.00,VWS V14.00,2013-07-04 09:29:00,
2013-07-04 05:34:00,66.4,64.9,29.15,SSW,202,0.0,0.0,95,0.00,,,0.00,VWS V14.00,2013-07-04 09:34:00,
2013-07-04 05:39:00,66.2,64.7,29.15,SSW,202,0.0,0.0,95,0.00,,,0.00,VWS V14.00,2013-07-04 09:39:00,
2013-07-04 05:44:00,66.4,64.9,29.15,SSW,202,0.0,0.0,95,0.00,,,0.00,VWS V14.00,2013-07-04 09:44:00,
2013-07-04 05:49:00,66.4,65.2,29.15,SSW,202,0.0,0.0,96,0.00,,,0.00,VWS V14.00,2013-07-04 09:49:00,
2013-07-04 05:54:00,66.4,65.2,29.15,SSW,202,0.0,0.0,96,0.00,,,0.00,VWS V14.00,2013-07-04 09:54:00,
2013-07-04 05:59:00,66.4,65.2,29.15,SSW,202,0.0,0.0,96,0.00,,,0.00,VWS V14.00,2013-07-04 09:59:00,
2013-07-04 06:04:00,66.6,65.4,29.15,SSW,202,0.0,0.0,96,0.00,,,0.00,VWS V14.00,2013-07-04 10:04:00,
2013-07-04 06:09:00,66.6,65.4,29.15,SSW,202,0.0,0.0,96,0.00,,,0.00,VWS V14.00,2013-07-04 10:09:00,
2013-07-04 06:14:00,66.7,65.9,29.15,SSW,202,0.0,0.0,97,0.00,,,0.00,VWS V14.00,2013-07-04 10:14:00,
2013-07-04 06:19:00,66.6,65.4,29.15,SSW,202,0.0,0.0,96,0.00,,,0.00,VWS V14.00,2013-07-04 10:19:00,
2013-07-04 06:24:00,66.7,65.6,29.15,SSW,202,0.0,0.0,96,0.00,,,0.00,VWS V14.00,2013-07-04 10:24:00,
2013-07-04 06:29:00,66.7,65.6,29.15,SSW,202,0.0,0.0,96,0.00,,,0.00,VWS V14.00,2013-07-04 10:29:00,
2013-07-04 06:34:00,66.7,65.6,29.15,SSW,202,0.0,0.0,96,0.00,,,0.00,VWS V14.00,2013-07-04 10:34:00,
2013-07-04 06:39:00,66.9,65.8,29.15,SSE,168,0.0,0.0,96,0.00,,,0.00,VWS V14.00,2013-07-04 10:39:00,
2013-07-04 06:44:00,66.9,65.8,29.15,SW,236,0.0,0.0,96,0.00,,,0.00,VWS V14.00,2013-07-04 10:44:00,
2013-07-04 06:49:00,67.1,65.9,29.18,SW,235,0.0,0.0,96,0.00,,,0.00,VWS V14.00,2013-07-04 10:49:00,
2013-07-04 06:54:00,67.1,65.9,29.18,SW,235,0.0,0.0,96,0.00,,,0.00,VWS V14.00,2013-07-04 10:54:00,
2013-07-04 06:59:00,67.3,66.1,29.18,SSW,195,0.0,3.6,96,0.00,,,0.00,VWS V14.00,2013-07-04 10:59:00,
2013-07-04 07:04:00,67.3,66.1,29.18,SSW,195,0.0,0.0,96,0.00,,,0.00,VWS V14.00,2013-07-04 11:04:00,
2013-07-04 07:09:00,67.5,66.3,29.18,SSW,195,0.0,0.0,96,0.00,,,0.00,VWS V14.00,2013-07-04 11:09:00,
2013-07-04 07:14:00,67.6,66.5,29.18,South,188,0.0,0.0,96,0.00,,,0.00,VWS V14.00,2013-07-04 11:14:00,
2013-07-04 07:19:00,67.8,66.6,29.18,South,188,0.0,0.0,96,0.00,,,0.00,VWS V14.00,2013-07-04 11:19:00,
2013-07-04 07:24:00,68.0,66.5,29.18,South,188,0.0,0.0,95,0.00,,,0.00,VWS V14.00,2013-07-04 11:24:00,
2013-07-04 07:29:00,68.2,66.7,29.18,SSE,167,0.0,0.0,95,0.00,,,0.00,VWS V14.00,2013-07-04 11:29:00,
2013-07-04 07:34:00,68.2,66.7,29.18,SW,217,0.0,0.0,95,0.00,,,0.00,VWS V14.00,2013-07-04 11:34:00,
2013-07-04 07:39:00,68.5,66.8,29.18,SSW,199,0.0,0.0,94,0.00,,,0.00,VWS V14.00,2013-07-04 11:39:00,
2013-07-04 07:44:00,68.5,66.8,29.18,SSW,207,0.0,0.0,94,0.00,,,0.00,VWS V14.00,2013-07-04 11:44:00,
2013-07-04 07:49:00,68.7,66.6,29.18,WSW,254,0.0,0.0,93,0.00,,,0.00,VWS V14.00,2013-07-04 11:49:00,
2013-07-04 07:54:00,68.9,66.8,29.18,South,187,0.0,0.0,93,0.00,,,0.00,VWS V14.00,2013-07-04 11:54:00,
2013-07-04 07:59:00,69.1,67.0,29.18,SSW,195,0.0,3.6,93,0.00,,,0.00,VWS V14.00,2013-07-04 11:59:00,
2013-07-04 08:05:00,69.4,67.0,29.18,SSW,211,0.0,0.0,92,0.00,,,0.00,VWS V14.00,2013-07-04 12:05:00,
2013-07-04 08:10:00,69.8,67.1,29.18,SSW,195,2.7,3.6,91,0.00,,,0.00,VWS V14.00,2013-07-04 12:10:00,
2013-07-04 08:15:00,70.2,67.4,29.18,SE,125,3.1,4.9,91,0.00,,,0.00,VWS V14.00,2013-07-04 12:15:00,
2013-07-04 08:20:00,70.3,67.3,29.18,SW,218,0.0,4.9,90,0.00,,,0.00,VWS V14.00,2013-07-04 12:20:00,
2013-07-04 08:25:00,70.3,66.9,29.18,WSW,252,0.0,4.9,89,0.00,,,0.00,VWS V14.00,2013-07-04 12:25:00,
2013-07-04 08:30:00,70.7,67.3,29.18,SW,224,0.0,4.9,89,0.00,,,0.00,VWS V14.00,2013-07-04 12:30:00,
2013-07-04 08:35:00,70.9,66.8,29.18,SW,222,0.0,0.0,87,0.00,,,0.00,VWS V14.00,2013-07-04 12:35:00,
2013-07-04 08:40:00,71.2,66.8,29.18,South,187,4.9,4.9,86,0.00,,,0.00,VWS V14.00,2013-07-04 12:40:00,
2013-07-04 08:45:00,71.8,67.4,29.18,South,190,0.0,4.9,86,0.00,,,0.00,VWS V14.00,2013-07-04 12:45:00,
2013-07-04 08:50:00,72.1,67.4,29.18,SSW,209,0.0,4.9,85,0.00,,,0.00,VWS V14.00,2013-07-04 12:50:00,
2013-07-04 08:55:00,72.5,67.1,29.18,SW,232,0.0,4.9,83,0.00,,,0.00,VWS V14.00,2013-07-04 12:55:00,
2013-07-04 09:00:00,72.9,67.1,29.18,WSW,255,0.0,4.9,82,0.00,,,0.00,VWS V14.00,2013-07-04 13:00:00,
2013-07-04 09:05:00,72.9,66.3,29.18,West,265,5.8,5.8,80,0.00,,,0.00,VWS V14.00,2013-07-04 13:05:00,
2013-07-04 09:10:00,72.9,66.3,29.18,NW,320,3.6,5.8,80,0.00,,,0.00,VWS V14.00,2013-07-04 13:10:00,
2013-07-04 09:15:00,73.0,66.5,29.18,SSW,209,0.0,5.8,80,0.00,,,0.00,VWS V14.00,2013-07-04 13:15:00,
2013-07-04 09:20:00,73.0,66.5,29.18,WSW,250,0.0,5.8,80,0.00,,,0.00,VWS V14.00,2013-07-04 13:20:00,
2013-07-04 09:25:00,73.0,66.5,29.18,SW,222,0.0,5.8,80,0.00,,,0.00,VWS V14.00,2013-07-04 13:25:00,
2013-07-04 09:30:00,73.2,66.3,29.21,West,264,0.0,0.0,79,0.00,,,0.00,VWS V14.00,2013-07-04 13:30:00,
2013-07-04 09:35:00,73.2,65.6,29.21,WNW,300,0.0,0.0,77,0.00,,,0.00,VWS V14.00,2013-07-04 13:35:00,
2013-07-04 09:40:00,73.6,65.6,29.21,North,1,0.0,0.0,76,0.00,,,0.00,VWS V14.00,2013-07-04 13:40:00,
2013-07-04 09:45:00,73.8,65.3,29.21,NW,304,0.0,5.4,75,0.00,,,0.00,VWS V14.00,2013-07-04 13:45:00,
2013-07-04 09:50:00,73.8,65.0,29.21,South,185,0.0,5.4,74,0.00,,,0.00,VWS V14.00,2013-07-04 13:50:00,
2013-07-04 09:55:00,74.5,65.7,29.21,WSW,252,0.0,5.4,74,0.00,,,0.00,VWS V14.00,2013-07-04 13:55:00,
2013-07-04 10:00:00,75.2,66.0,29.21,SW,226,0.0,0.0,73,0.00,,,0.00,VWS V14.00,2013-07-04 14:00:00,
2013-07-04 10:05:00,75.2,64.8,29.21,West,261,4.9,5.8,70,0.00,,,0.00,VWS V14.00,2013-07-04 14:05:00,
2013-07-04 10:10:00,74.8,64.4,29.21,WNW,285,0.0,5.8,70,0.00,,,0.00,VWS V14.00,2013-07-04 14:10:00,
2013-07-04 10:15:00,75.7,65.3,29.21,SSE,156,0.0,6.3,70,0.00,,,0.00,VWS V14.00,2013-07-04 14:15:00,
2013-07-04 10:20:00,75.9,65.4,29.21,SSW,202,0.0,6.3,70,0.00,,,0.00,VWS V14.00,2013-07-04 14:20:00,
2013-07-04 10:25:00,75.4,64.9,29.21,WSW,244,2.2,6.3,70,0.00,,,0.00,VWS V14.00,2013-07-04 14:25:00,
2013-07-04 10:30:00,77.5,67.4,29.18,SSE,163,0.0,0.0,71,0.00,,,0.00,VWS V14.00,2013-07-04 14:30:00,
2013-07-04 10:35:00,78.3,66.4,29.18,SSW,203,0.0,5.4,67,0.00,,,0.00,VWS V14.00,2013-07-04 14:35:00,
2013-07-04 10:40:00,78.1,66.2,29.18,SSW,208,0.0,5.8,67,0.00,,,0.00,VWS V14.00,2013-07-04 14:40:00,
2013-07-04 10:45:00,79.7,66.0,29.18,WNW,285,0.0,5.8,63,0.00,,,0.00,VWS V14.00,2013-07-04 14:45:00,
2013-07-04 10:50:00,80.1,67.7,29.18,WNW,302,0.0,5.8,66,0.00,,,0.00,VWS V14.00,2013-07-04 14:50:00,
2013-07-04 10:55:00,80.1,65.4,29.18,SW,217,0.0,5.8,61,0.00,,,0.00,VWS V14.00,2013-07-04 14:55:00,
2013-07-04 11:00:00,81.1,66.9,29.18,South,174,2.7,3.6,62,0.00,,,0.00,VWS V14.00,2013-07-04 15:00:00,
2013-07-04 11:05:00,78.8,63.8,29.18,SW,236,2.2,5.8,60,0.00,,,0.00,VWS V14.00,2013-07-04 15:05:00,
2013-07-04 11:10:00,80.1,66.8,29.18,WNW,292,0.0,5.8,64,0.00,,,0.00,VWS V14.00,2013-07-04 15:10:00,
2013-07-04 11:15:00,80.1,65.4,29.18,South,187,0.0,5.8,61,0.00,,,0.00,VWS V14.00,2013-07-04 15:15:00,
2013-07-04 11:20:00,78.4,63.4,29.18,WSW,256,5.4,5.8,60,0.00,,,0.00,VWS V14.00,2013-07-04 15:20:00,
2013-07-04 11:25:00,78.8,64.7,29.18,SW,225,0.0,5.8,62,0.00,,,0.00,VWS V14.00,2013-07-04 15:25:00,
2013-07-04 11:30:00,78.3,63.2,29.18,South,181,4.0,4.0,60,0.00,,,0.00,VWS V14.00,2013-07-04 15:30:00,
2013-07-04 11:35:00,80.2,64.6,29.18,WSW,253,3.6,6.3,59,0.00,,,0.00,VWS V14.00,2013-07-04 15:35:00,
2013-07-04 11:40:00,79.2,64.1,29.18,SW,234,5.4,6.3,60,0.00,,,0.00,VWS V14.00,2013-07-04 15:40:00,
2013-07-04 11:45:00,81.1,65.0,29.18,South,189,7.6,7.6,58,0.00,,,0.00,VWS V14.00,2013-07-04 15:45:00,
2013-07-04 11:50:00,79.2,62.1,29.18,SSW,192,4.0,8.3,56,0.00,,,0.00,VWS V14.00,2013-07-04 15:50:00,
2013-07-04 11:55:00,80.6,64.0,29.18,SSE,150,4.0,8.3,57,0.00,,,0.00,VWS V14.00,2013-07-04 15:55:00,
2013-07-04 12:00:00,81.0,63.3,29.21,SSW,211,7.6,7.6,55,0.00,,,0.00,VWS V14.00,2013-07-04 16:00:00,
2013-07-04 12:05:00,80.6,62.4,29.21,SW,226,2.7,7.6,54,0.00,,,0.00,VWS V14.00,2013-07-04 16:05:00,
2013-07-04 12:10:00,79.7,62.1,29.21,WSW,241,0.0,7.6,55,0.00,,,0.00,VWS V14.00,2013-07-04 16:10:00,
2013-07-04 12:15:00,79.7,62.1,29.21,WSW,239,2.7,7.6,55,0.00,,,0.00,VWS V14.00,2013-07-04 16:15:00,
2013-07-04 12:20:00,80.2,62.1,29.21,SW,236,0.0,7.6,54,0.00,,,0.00,VWS V14.00,2013-07-04 16:20:00,
2013-07-04 12:25:00,80.6,62.4,29.21,West,273,4.0,7.6,54,0.00,,,0.00,VWS V14.00,2013-07-04 16:25:00,
2013-07-04 12:30:00,81.5,62.7,29.21,South,170,3.6,5.4,53,0.00,,,0.00,VWS V14.00,2013-07-04 16:30:00,
2013-07-04 12:35:00,81.3,62.6,29.21,West,272,0.0,5.8,53,0.00,,,0.00,VWS V14.00,2013-07-04 16:35:00,
2013-07-04 12:40:00,80.1,60.9,29.21,WNW,289,0.0,7.2,52,0.00,,,0.00,VWS V14.00,2013-07-04 16:40:00,
2013-07-04 12:45:00,79.2,59.5,29.21,West,278,3.6,7.2,51,0.00,,,0.00,VWS V14.00,2013-07-04 16:45:00,
2013-07-04 12:50:00,78.8,60.2,29.21,SSE,168,3.6,7.2,53,0.00,,,0.00,VWS V14.00,2013-07-04 16:50:00,
2013-07-04 12:55:00,80.2,62.1,29.21,West,261,0.0,7.2,54,0.00,,,0.00,VWS V14.00,2013-07-04 16:55:00,
2013-07-04 13:00:00,81.0,61.7,29.21,SSE,166,2.7,2.7,52,0.00,,,0.00,VWS V14.00,2013-07-04 17:00:00,
2013-07-04 13:05:00,80.6,61.9,29.21,SSE,165,0.0,7.2,53,0.00,,,0.00,VWS V14.00,2013-07-04 17:05:00,
2013-07-04 13:10:00,80.2,59.9,29.21,SW,214,4.0,7.6,50,0.00,,,0.20,VWS V14.00,2013-07-04 17:10:00,
2013-07-04 13:15:00,80.8,62.1,29.21,SW,227,2.7,7.6,53,1.46,,,0.94,VWS V14.00,2013-07-04 17:15:00,
2013-07-04 13:20:00,82.8,62.8,29.21,NNE,21,3.1,7.6,51,1.46,,,0.94,VWS V14.00,2013-07-04 17:20:00,
2013-07-04 13:25:00,81.7,61.8,29.21,South,187,4.0,7.6,51,1.46,,,0.94,VWS V14.00,2013-07-04 17:25:00,
2013-07-04 13:30:00,81.0,59.4,29.21,SSW,199,0.0,3.6,48,1.46,,,0.94,VWS V14.00,2013-07-04 17:30:00,
2013-07-04 13:35:00,81.0,60.0,29.21,SSW,207,3.6,6.3,49,1.46,,,0.94,VWS V14.00,2013-07-04 17:35:00,
2013-07-04 13:40:00,80.1,59.8,29.21,South,179,4.0,6.3,50,1.46,,,0.94,VWS V14.00,2013-07-04 17:40:00,
2013-07-04 13:45:00,79.9,60.7,29.18,South,180,0.0,6.3,52,1.46,,,0.94,VWS V14.00,2013-07-04 17:45:00,
2013-07-04 13:50:00,80.1,60.3,29.18,SW,219,2.7,6.3,51,1.46,,,0.94,VWS V14.00,2013-07-04 17:50:00,
2013-07-04 13:55:00,79.9,60.2,29.18,West,264,0.0,6.3,51,1.46,,,0.94,VWS V14.00,2013-07-04 17:55:00,
2013-07-04 14:00:00,79.7,60.5,29.18,SSW,203,0.0,0.0,52,1.46,,,0.94,VWS V14.00,2013-07-04 18:00:00,
2013-07-04 14:05:00,80.4,60.7,29.18,West,279,0.0,3.6,51,1.46,,,0.94,VWS V14.00,2013-07-04 18:05:00,
2013-07-04 14:10:00,80.1,60.9,29.18,South,176,0.0,3.6,52,1.46,,,0.94,VWS V14.00,2013-07-04 18:10:00,
2013-07-04 14:15:00,80.2,61.0,29.18,SSW,208,0.0,5.8,52,1.46,,,0.94,VWS V14.00,2013-07-04 18:15:00,
2013-07-04 14:20:00,79.9,59.6,29.18,West,260,0.0,5.8,50,1.46,,,0.94,VWS V14.00,2013-07-04 18:20:00,
2013-07-04 14:25:00,80.8,61.0,29.18,SSW,205,4.9,8.3,51,1.46,,,0.94,VWS V14.00,2013-07-04 18:25:00,
2013-07-04 14:30:00,81.3,60.9,29.18,SSW,193,5.4,5.4,50,1.46,,,0.94,VWS V14.00,2013-07-04 18:30:00,
2013-07-04 14:35:00,80.8,59.9,29.18,SSW,208,2.7,5.8,49,1.46,,,0.94,VWS V14.00,2013-07-04 18:35:00,
2013-07-04 14:40:00,81.1,60.8,29.18,WSW,239,3.6,5.8,50,1.46,,,0.94,VWS V14.00,2013-07-04 18:40:00,
2013-07-04 14:45:00,81.7,61.2,29.18,WSW,254,3.1,5.8,50,1.46,,,0.94,VWS V14.00,2013-07-04 18:45:00,
2013-07-04 14:50:00,81.9,61.4,29.18,SSW,195,0.0,5.8,50,1.46,,,0.94,VWS V14.00,2013-07-04 18:50:00,
2013-07-04 14:55:00,82.9,59.4,29.18,SW,217,7.6,7.6,45,1.46,,,0.94,VWS V14.00,2013-07-04 18:55:00,
2013-07-04 15:00:00,82.4,60.8,29.18,SSE,150,3.6,3.6,48,1.46,,,0.94,VWS V14.00,2013-07-04 19:00:00,
2013-07-04 15:05:00,82.4,60.2,29.18,SSE,156,3.6,4.0,47,1.46,,,0.94,VWS V14.00,2013-07-04 19:05:00,
2013-07-04 15:10:00,82.8,60.5,29.18,WNW,286,0.0,11.0,47,1.46,,,0.94,VWS V14.00,2013-07-04 19:10:00,
2013-07-04 15:16:00,83.3,61.0,29.18,WNW,286,2.7,11.0,47,1.46,,,0.94,VWS V14.00,2013-07-04 19:16:00,
2013-07-04 15:20:00,82.9,60.7,29.18,WSW,255,0.0,11.0,47,1.46,,,0.94,VWS V14.00,2013-07-04 19:20:00,
2013-07-04 15:25:00,81.9,59.1,29.18,SW,226,0.0,11.0,46,0.00,,,0.94,VWS V14.00,2013-07-04 19:25:00,
2013-07-04 15:31:00,82.0,61.0,29.18,West,270,0.0,0.0,49,0.00,,,0.94,VWS V14.00,2013-07-04 19:31:00,
2013-07-04 15:36:00,82.0,59.8,29.18,South,185,3.1,5.8,47,0.00,,,0.94,VWS V14.00,2013-07-04 19:36:00,
2013-07-04 15:41:00,82.6,60.3,29.18,SSW,201,0.0,5.8,47,0.00,,,0.94,VWS V14.00,2013-07-04 19:41:00,
2013-07-04 15:46:00,82.8,59.3,29.18,WSW,249,4.0,6.3,45,0.00,,,0.94,VWS V14.00,2013-07-04 19:46:00,
2013-07-04 15:51:00,82.8,60.5,29.18,SSW,210,4.0,6.3,47,0.00,,,0.94,VWS V14.00,2013-07-04 19:51:00,
2013-07-04 15:56:00,82.4,60.2,29.18,South,186,0.0,6.3,47,0.00,,,0.94,VWS V14.00,2013-07-04 19:56:00,
2013-07-04 16:01:00,82.0,58.6,29.18,SW,219,4.0,4.0,45,0.00,,,0.94,VWS V14.00,2013-07-04 20:01:00,
2013-07-04 16:06:00,82.6,60.3,29.18,SW,215,0.0,5.8,47,0.00,,,0.94,VWS V14.00,2013-07-04 20:06:00,
2013-07-04 16:11:00,83.8,61.5,29.18,SW,221,0.0,5.8,47,0.00,,,0.94,VWS V14.00,2013-07-04 20:11:00,
2013-07-04 16:16:00,84.0,62.2,29.18,SSE,148,0.0,5.8,48,0.00,,,0.94,VWS V14.00,2013-07-04 20:16:00,
2013-07-04 16:21:00,85.1,61.4,29.18,North,353,0.0,6.3,45,0.00,,,0.94,VWS V14.00,2013-07-04 20:21:00,
2013-07-04 16:26:00,84.9,61.2,29.18,SSW,202,4.5,6.3,45,0.00,,,0.94,VWS V14.00,2013-07-04 20:26:00,
2013-07-04 16:31:00,84.0,61.0,29.18,SSW,212,0.0,0.0,46,0.00,,,0.94,VWS V14.00,2013-07-04 20:31:00,
2013-07-04 16:36:00,82.4,58.3,29.18,West,275,6.3,6.3,44,0.00,,,0.94,VWS V14.00,2013-07-04 20:36:00,
2013-07-04 16:41:00,81.9,59.7,29.18,West,265,0.0,6.3,47,0.00,,,0.94,VWS V14.00,2013-07-04 20:41:00,
2013-07-04 16:46:00,81.9,58.5,29.18,WSW,245,5.8,6.3,45,0.00,,,0.94,VWS V14.00,2013-07-04 20:46:00,
2013-07-04 16:51:00,81.9,59.7,29.18,WSW,258,0.0,6.3,47,0.00,,,0.94,VWS V14.00,2013-07-04 20:51:00,
2013-07-04 16:56:00,81.3,59.2,29.18,WSW,258,0.0,6.3,47,0.00,,,0.94,VWS V14.00,2013-07-04 20:56:00,
2013-07-04 17:01:00,81.1,59.6,29.18,WSW,245,0.0,0.0,48,0.00,,,0.94,VWS V14.00,2013-07-04 21:01:00,
2013-07-04 17:06:00,80.4,59.0,29.18,WNW,286,0.0,6.7,48,0.00,,,0.94,VWS V14.00,2013-07-04 21:06:00,
2013-07-04 17:11:00,80.8,59.9,29.18,SW,214,0.0,6.7,49,0.00,,,0.94,VWS V14.00,2013-07-04 21:11:00,
2013-07-04 17:16:00,80.4,59.5,29.15,ESE,116,0.0,6.7,49,0.00,,,0.94,VWS V14.00,2013-07-04 21:16:00,
2013-07-04 17:21:00,80.6,59.7,29.15,SSW,213,0.0,6.7,49,0.00,,,0.94,VWS V14.00,2013-07-04 21:21:00,
2013-07-04 17:26:00,80.8,59.9,29.15,WSW,251,0.0,6.7,49,0.00,,,0.94,VWS V14.00,2013-07-04 21:26:00,
2013-07-04 17:31:00,80.4,59.0,29.15,SSE,152,0.0,3.6,48,0.00,,,0.94,VWS V14.00,2013-07-04 21:31:00,
2013-07-04 17:36:00,80.1,59.2,29.15,South,187,0.0,4.0,49,0.00,,,0.94,VWS V14.00,2013-07-04 21:36:00,
2013-07-04 17:41:00,79.9,59.0,29.15,ESE,121,0.0,4.0,49,0.00,,,0.94,VWS V14.00,2013-07-04 21:41:00,
2013-07-04 17:46:00,79.9,59.6,29.15,SSW,196,0.0,4.0,50,0.00,,,0.94,VWS V14.00,2013-07-04 21:46:00,
2013-07-04 17:51:00,79.2,57.8,29.15,South,181,0.0,5.4,48,0.00,,,0.94,VWS V14.00,2013-07-04 21:51:00,
2013-07-04 17:56:00,79.0,58.2,29.15,SW,216,0.0,5.8,49,0.00,,,0.94,VWS V14.00,2013-07-04 21:56:00,
2013-07-04 18:01:00,79.0,58.8,29.15,SW,226,0.0,0.0,50,0.00,,,0.94,VWS V14.00,2013-07-04 22:01:00,
2013-07-04 18:06:00,79.2,58.9,29.15,SSW,208,3.6,4.0,50,0.00,,,0.94,VWS V14.00,2013-07-04 22:06:00,
2013-07-04 18:11:00,79.5,59.8,29.15,South,170,0.0,4.9,51,0.00,,,0.94,VWS V14.00,2013-07-04 22:11:00,
2013-07-04 18:16:00,79.5,57.5,29.15,South,181,5.4,5.8,47,0.00,,,0.94,VWS V14.00,2013-07-04 22:16:00,
2013-07-04 18:21:00,79.5,58.1,29.15,WSW,256,0.0,5.8,48,0.00,,,0.94,VWS V14.00,2013-07-04 22:21:00,
2013-07-04 18:26:00,79.3,58.5,29.15,SSE,162,0.0,5.8,49,0.00,,,0.94,VWS V14.00,2013-07-04 22:26:00,
2013-07-04 18:31:00,79.0,57.6,29.15,ESE,118,3.6,4.0,48,0.00,,,0.94,VWS V14.00,2013-07-04 22:31:00,
2013-07-04 18:36:00,78.3,57.5,29.15,SSW,202,0.0,4.0,49,0.00,,,0.94,VWS V14.00,2013-07-04 22:36:00,
2013-07-04 18:41:00,78.1,58.0,29.15,SSW,194,0.0,4.0,50,0.00,,,0.94,VWS V14.00,2013-07-04 22:41:00,
2013-07-04 18:46:00,77.9,57.8,29.15,South,189,0.0,4.0,50,0.00,,,0.94,VWS V14.00,2013-07-04 22:46:00,
2013-07-04 18:51:00,77.7,57.1,29.15,SW,214,2.7,5.8,49,0.00,,,0.94,VWS V14.00,2013-07-04 22:51:00,
2013-07-04 18:56:00,77.7,58.2,29.15,SW,218,0.0,5.8,51,0.00,,,0.94,VWS V14.00,2013-07-04 22:56:00,
2013-07-04 19:01:00,77.7,59.2,29.15,WSW,244,0.0,0.0,53,0.00,,,0.94,VWS V14.00,2013-07-04 23:01:00,
2013-07-04 19:06:00,77.9,60.5,29.15,SW,214,0.0,0.0,55,0.00,,,0.94,VWS V14.00,2013-07-04 23:06:00,
2013-07-04 19:11:00,77.9,59.4,29.15,WSW,239,0.0,2.7,53,0.00,,,0.94,VWS V14.00,2013-07-04 23:11:00,
2013-07-04 19:16:00,77.4,60.5,29.15,SW,228,0.0,2.7,56,0.00,,,0.94,VWS V14.00,2013-07-04 23:16:00,
2013-07-04 19:21:00,77.4,59.4,29.15,SSE,166,0.0,2.7,54,0.00,,,0.94,VWS V14.00,2013-07-04 23:21:00,
2013-07-04 19:26:00,77.4,60.0,29.15,SW,232,0.0,3.6,55,0.00,,,0.94,VWS V14.00,2013-07-04 23:26:00,
2013-07-04 19:31:00,77.5,60.6,29.15,SW,229,0.0,0.0,56,0.00,,,0.94,VWS V14.00,2013-07-04 23:31:00,
2013-07-04 19:36:00,77.4,60.0,29.15,SSE,163,0.0,3.6,55,0.00,,,0.94,VWS V14.00,2013-07-04 23:36:00,
2013-07-04 19:41:00,77.0,61.1,29.15,SSE,159,0.0,3.6,58,0.00,,,0.94,VWS V14.00,2013-07-04 23:41:00,
2013-07-04 19:46:00,76.8,60.0,29.15,WNW,295,0.0,3.6,56,0.00,,,0.94,VWS V14.00,2013-07-04 23:46:00,
2013-07-04 19:51:00,76.6,59.8,29.15,SSW,202,0.0,3.6,56,0.00,,,0.94,VWS V14.00,2013-07-04 23:51:00,
2013-07-04 19:56:00,76.3,59.5,29.15,SSW,202,0.0,3.6,56,0.00,,,0.94,VWS V14.00,2013-07-04 23:56:00,
2013-07-04 20:01:00,75.4,61.0,29.15,SSW,202,0.0,0.0,61,0.00,,,0.94,VWS V14.00,2013-07-05 00:01:00,
2013-07-04 20:06:00,75.2,58.4,29.15,SSW,202,0.0,0.0,56,0.00,,,0.94,VWS V14.00,2013-07-05 00:06:00,
2013-07-04 20:11:00,74.8,59.6,29.15,SSW,202,0.0,0.0,59,0.00,,,0.94,VWS V14.00,2013-07-05 00:11:00,
2013-07-04 20:16:00,74.1,60.3,29.15,NW,322,0.0,0.0,62,0.00,,,0.94,VWS V14.00,2013-07-05 00:16:00,
2013-07-04 20:21:00,73.6,59.3,29.15,NNW,328,0.0,0.0,61,0.00,,,0.94,VWS V14.00,2013-07-05 00:21:00,
2013-07-04 20:26:00,73.0,60.6,29.15,NNW,328,0.0,0.0,65,0.00,,,0.94,VWS V14.00,2013-07-05 00:26:00,
2013-07-04 20:31:00,72.9,60.0,29.15,NNW,328,0.0,0.0,64,0.00,,,0.94,VWS V14.00,2013-07-05 00:31:00,
2013-07-04 20:36:00,72.7,58.9,29.15,NNW,328,0.0,0.0,62,0.00,,,0.94,VWS V14.00,2013-07-05 00:36:00,
2013-07-04 20:41:00,72.7,58.5,29.15,NNW,328,0.0,0.0,61,0.00,,,0.94,VWS V14.00,2013-07-05 00:41:00,
2013-07-04 20:46:00,72.3,58.6,29.15,NNW,328,0.0,0.0,62,0.00,,,0.94,VWS V14.00,2013-07-05 00:46:00,
2013-07-04 20:51:00,72.1,58.4,29.15,NNW,328,0.0,0.0,62,0.00,,,0.94,VWS V14.00,2013-07-05 00:51:00,
2013-07-04 20:56:00,72.0,59.1,29.15,NNW,328,0.0,0.0,64,0.00,,,0.94,VWS V14.00,2013-07-05 00:56:00,
2013-07-04 21:01:00,71.6,59.2,29.15,NNW,328,0.0,0.0,65,0.00,,,0.94,VWS V14.00,2013-07-05 01:01:00,
2013-07-04 21:06:00,71.4,59.0,29.15,NNW,328,0.0,0.0,65,0.00,,,0.94,VWS V14.00,2013-07-05 01:06:00,
2013-07-04 21:11:00,71.1,59.1,29.15,NNW,328,0.0,0.0,66,0.00,,,0.94,VWS V14.00,2013-07-05 01:11:00,
2013-07-04 21:16:00,70.5,59.5,29.15,NNW,328,0.0,0.0,68,0.00,,,0.94,VWS V14.00,2013-07-05 01:16:00,
2013-07-04 21:21:00,70.3,59.7,29.15,NNW,328,0.0,0.0,69,0.00,,,0.94,VWS V14.00,2013-07-05 01:21:00,
2013-07-04 21:26:00,70.2,59.5,29.15,NNW,328,0.0,0.0,69,0.00,,,0.94,VWS V14.00,2013-07-05 01:26:00,
2013-07-04 21:31:00,69.8,59.2,29.15,NNW,328,0.0,0.0,69,0.00,,,0.94,VWS V14.00,2013-07-05 01:31:00,
2013-07-04 21:36:00,69.6,59.0,29.15,NNW,328,0.0,0.0,69,0.00,,,0.94,VWS V14.00,2013-07-05 01:36:00,
2013-07-04 21:42:00,69.4,58.0,29.15,NNW,328,0.0,0.0,67,0.00,,,0.94,VWS V14.00,2013-07-05 01:42:00,
2013-07-04 21:47:00,69.1,57.7,29.15,NNW,328,0.0,0.0,67,0.00,,,0.94,VWS V14.00,2013-07-05 01:47:00,
2013-07-04 21:52:00,68.9,57.9,29.15,NNW,328,0.0,0.0,68,0.00,,,0.94,VWS V14.00,2013-07-05 01:52:00,
2013-07-04 21:57:00,68.9,57.9,29.15,NNW,328,0.0,0.0,68,0.00,,,0.94,VWS V14.00,2013-07-05 01:57:00,
2013-07-04 22:02:00,68.7,57.7,29.15,NNW,328,0.0,0.0,68,0.00,,,0.94,VWS V14.00,2013-07-05 02:02:00,
2013-07-04 22:07:00,68.7,58.2,29.15,NNW,328,0.0,0.0,69,0.00,,,0.94,VWS V14.00,2013-07-05 02:07:00,
2013-07-04 22:12:00,68.5,58.8,29.15,NNW,328,0.0,0.0,71,0.00,,,0.94,VWS V14.00,2013-07-05 02:12:00,
2013-07-04 22:17:00,68.5,58.8,29.18,NNW,328,0.0,0.0,71,0.00,,,0.94,VWS V14.00,2013-07-05 02:17:00,
2013-07-04 22:22:00,68.5,58.4,29.18,NNW,328,0.0,0.0,70,0.00,,,0.94,VWS V14.00,2013-07-05 02:22:00,
2013-07-04 22:27:00,68.4,58.6,29.18,NNW,328,0.0,0.0,71,0.00,,,0.94,VWS V14.00,2013-07-05 02:27:00,
2013-07-04 22:32:00,68.4,58.6,29.18,NNW,328,0.0,0.0,71,0.00,,,0.94,VWS V14.00,2013-07-05 02:32:00,
2013-07-04 22:37:00,68.4,59.0,29.18,NNW,328,0.0,0.0,72,0.00,,,0.94,VWS V14.00,2013-07-05 02:37:00,
2013-07-04 22:42:00,68.0,59.8,29.18,NNW,328,0.0,0.0,75,0.00,,,0.94,VWS V14.00,2013-07-05 02:42:00,
2013-07-04 22:47:00,67.8,60.3,29.18,NNW,328,0.0,0.0,77,0.00,,,0.94,VWS V14.00,2013-07-05 02:47:00,
2013-07-04 22:52:00,67.8,60.0,29.18,NNW,328,0.0,0.0,76,0.00,,,0.94,VWS V14.00,2013-07-05 02:52:00,
2013-07-04 22:57:00,67.6,60.2,29.18,NNW,328,0.0,0.0,77,0.00,,,0.94,VWS V14.00,2013-07-05 02:57:00,
2013-07-04 23:02:00,67.6,60.2,29.18,NNW,328,0.0,0.0,77,0.00,,,0.94,VWS V14.00,2013-07-05 03:02:00,
2013-07-04 23:07:00,67.6,60.5,29.18,NNW,328,0.0,0.0,78,0.00,,,0.94,VWS V14.00,2013-07-05 03:07:00,
2013-07-04 23:12:00,67.6,60.5,29.18,NNW,328,0.0,0.0,78,0.00,,,0.94,VWS V14.00,2013-07-05 03:12:00,
2013-07-04 23:17:00,67.6,60.9,29.18,NNW,328,0.0,0.0,79,0.00,,,0.94,VWS V14.00,2013-07-05 03:17:00,
2013-07-04 23:22:00,67.6,60.9,29.18,NNW,328,0.0,0.0,79,0.00,,,0.94,VWS V14.00,2013-07-05 03:22:00,
2013-07-04 23:27:00,67.5,60.7,29.18,NNW,328,0.0,0.0,79,0.00,,,0.94,VWS V14.00,2013-07-05 03:27:00,
2013-07-04 23:32:00,67.5,61.1,29.18,NNW,328,0.0,0.0,80,0.00,,,0.94,VWS V14.00,2013-07-05 03:32:00,
2013-07-04 23:37:00,67.3,60.9,29.18,NNW,328,0.0,0.0,80,0.00,,,0.94,VWS V14.00,2013-07-05 03:37:00,
2013-07-04 23:42:00,67.1,61.1,29.18,NNW,328,0.0,0.0,81,0.00,,,0.94,VWS V14.00,2013-07-05 03:42:00,
2013-07-04 23:47:00,66.9,61.2,29.15,NNW,328,0.0,0.0,82,0.00,,,0.94,VWS V14.00,2013-07-05 03:47:00,
2013-07-04 23:52:00,66.6,60.9,29.15,NNW,328,0.0,0.0,82,0.00,,,0.94,VWS V14.00,2013-07-05 03:52:00,
2013-07-04 23:57:00,66.4,60.7,29.15,NNW,328,0.0,0.0,82,0.00,,,0.94,VWS V14.00,2013-07-05 03:57:00,